SL-8 DEB, 13261

Orbit data source: Space-Track

SL-8 DEB, 13261 is space debris in LEO originally from a launch on Sun, 06 Jun 1982 UTC launched from the Plesetsk Missile And Space Complex (PKMTR). Debris objects in space refer to the collection of defunct objects orbiting the Earth. Examples of debris include non-operational satellites, rocket bodies, and fragments generated from explosions, collisions, or faulty payload assembly.

Loading next visibility...
Identifier
13261, 1982-055C
Orbit
LEO
Country
Flag of CISCIS
Related business
Manufacturer
Unknown
Mission
Spacecraft
Bus & Motor
Unknown
Mass
Unknown
Launch date (UTC)
1982-06-06 (44 years ago)
Launch vehicle
Unknown
Launch site
Plesetsk Missile And Space Complex (PKMTR)
Object type
Payload
Rocket body
Debris
Shape & HBR
Unknown shape, 0.5 m
Radar Cross Section
Medium (>0.1 m² and <1 m²)

Expand to show TLE details & history
Last TLE update: 2 days ago

TLE from 2 days ago
0 SL-8 DEB
1 13261U 82055C   26171.42035218 -.00000055  00000-0  27224-4 0  9997
2 13261  65.8330 192.8235 0016611 314.2727 158.0049 13.72892914206563
Epoch: 2026-06-20T10:05Z
TLE epoch observation values (Epoch: 2026-06-20T10:05:18.428Z)
Latitude
57.66359°
Longitude
-91.97994°
Altitude
1,009.339 km
Speed
7.347 km/s
True Right ascension
21h 51m 55s
True Declination
57° 30' 48"
Sunlit
Object was in daylight at epoch
Visualization orbit readout
Latitude
Unknown
Longitude
Unknown
Altitude
Unknown
Speed
Unknown
Apparent Right ascension
Unknown
Apparent Declination
Unknown
Sunlit
N/A
Visualization observer readout
Local Sidereal Time
00:39:52
Azimuth
Unknown
Elevation
Unknown
Doppler factor
Unknown
Orbital elements
Apogee altitude
999.957 km
Perigee altitude
975.487 km
Semi-major axis
7,365.859 km
Eccentricity
0.00166
Inclination
65.833°
RAAN
192.8235°
Arg. of periapsis
314.2727°
True anomaly
158.07605°
Mean anomaly
158.0049°
Eccentric anomaly
158.04049°
Mean motion
3.43327 °/min
Orbital period
104.86 mins
BSTAR
0.000027224
Loading maneuver chart data...
Computing Atmospheric mass density...
Loading historical data...
Loading historical data...
Loading historical data...
Loading historical data...
Loading historical data...
Loading historical data...
Loading historical data...

Documentation

Showing up to 5 results
|